Overview Statistics Trail Chart Weather Telemetry Raw packets
 

This is the latest recevied weather packets stored in our database for station/object IQ5LI-10. If no packets are shown the sender has not sent any weather packets the latest 10 day(s).

<< 1 2 3 4 >>
Time Temp. Humidity Pressure Rain* Wind** Luminosity Snow
1777929715 26.11° C 36% 1018.4 hPa - - - -
1777926104 26.67° C 36% 1018.6 hPa - - - -
1777922494 26.67° C 36% 1018.4 hPa - - - -
1777920689 26.67° C 36% 1018.3 hPa - - - -
1777915274 26.67° C 36% 1018.6 hPa - - - -
1777913470 26.67° C 35% 1018.6 hPa - - - -
1777911665 26.67° C 35% 1018.5 hPa - - - -
1777908055 26.67° C 35% 1018.8 hPa - - - -
1777904467 26.67° C 35% 1018.8 hPa - - - -
1777893616 26.67° C 35% 1019.9 hPa - - - -
1777891811 26.11° C 35% 1020.2 hPa - - - -
1777888201 26.11° C 35% 1020.4 hPa - - - -
1777882786 25.56° C 36% 1020.5 hPa - - - -
1777879175 25.56° C 36% 1020.4 hPa - - - -
1777873761 25.56° C 36% 1020.4 hPa - - - -
1777864733 25.56° C 36% 1019.5 hPa - - - -
1777861124 26.11° C 36% 1019.7 hPa - - - -
1777859319 26.11° C 36% 1019.6 hPa - - - -
1777855709 26.11° C 36% 1019.8 hPa - - - -
1777853904 26.11° C 36% 1019.9 hPa - - - -
1777852100 26.11° C 36% 1020 hPa - - - -
1777850294 26.11° C 36% 1020.1 hPa - - - -
1777848490 26.67° C 36% 1020.4 hPa - - - -
1777841270 26.67° C 36% 1020.4 hPa - - - -
1777832245 27.22° C 36% 1019.7 hPa - - - -

* Rain since midnight (hover to see other rain measurements)
** Current wind speed in m/s (hover to see current wind gust speed)